Date String (YYYY-MM-DD hh:mm:ss) UTC,Instrument flags,Ambient pressure (hPa),Sample flow (lpm),Bypass flow (lpm),Sample temperature (°C),Ambient temperature (°C),ASC tube jacket temperature (°C),LED temperature (°C),Box temperature (°C),Sample RH (%),Span deviation,Mass concentration (μg/m³),Mass concentration (μg/m³),Mass concentration (μg/m³)
DateTimeUTC,F1_M11,P_M11,Q1_M11,Q2_M11,T1_M11,T2_M11,T3_M11,T4_M11,T5_M11,U1_M11,ZSPAN_M11,X0_M11,X2_M11,X1_M11
2022-01-11 06:00:00,,0832.8,5.00,0.00,24.0,23.3,00.0,33.2,25.7,06.8,0000.0,0009.25,0003.66,0003.21
2022-01-11 06:01:00,,0832.9,5.02,0.00,24.0,23.2,00.0,33.2,25.6,06.8,0000.0,0009.12,0003.58,0003.15
2022-01-11 06:02:00,,0832.9,4.99,0.00,24.0,23.2,00.0,33.2,25.6,06.9,0000.0,0009.12,0003.59,0003.15
2022-01-11 06:03:00,,0832.8,5.00,0.00,24.0,23.2,00.0,33.2,25.6,07.0,0000.0,0009.29,0003.67,0003.18
2022-01-11 06:04:00,,0832.9,5.01,0.00,24.0,23.2,00.0,33.2,25.7,06.8,0000.0,0009.14,0003.73,0003.21
2022-01-11 06:05:00,,0832.8,5.00,0.00,24.0,23.3,00.0,33.2,25.7,06.4,0000.0,0008.70,0003.66,0003.16
2022-01-11 06:06:00,,0832.8,5.00,0.00,24.0,23.3,00.0,33.2,25.8,06.3,0000.0,0007.80,0003.59,0003.07
2022-01-11 06:07:00,,0832.8,4.99,0.00,24.0,23.4,00.0,33.2,25.8,06.6,0000.0,0007.69,0003.54,0002.99
2022-01-11 06:08:00,,0832.7,5.01,0.00,24.0,23.4,00.0,33.1,25.8,06.6,0000.0,0007.57,0003.52,0002.98
2022-01-11 06:09:00,,0832.7,4.99,0.00,24.0,23.4,00.0,33.1,25.8,06.8,0000.0,0007.31,0003.51,0002.98
2022-01-11 06:10:00,,0832.7,5.01,0.00,24.0,23.3,00.0,33.1,25.8,06.9,0000.0,0007.37,0003.55,0003.01
2022-01-11 06:11:00,,0832.7,5.00,0.00,24.0,23.3,00.0,33.1,25.7,06.9,0000.0,0007.82,0003.59,0003.06
2022-01-11 06:12:00,,0832.7,4.99,0.00,24.0,23.3,00.0,33.1,25.7,06.9,0000.0,0007.77,0003.60,0003.11
2022-01-11 06:13:00,,0832.7,4.99,0.00,24.0,23.3,00.0,33.1,25.8,07.0,0000.0,0008.00,0003.62,0003.13
2022-01-11 06:14:00,,0832.8,5.02,0.00,24.0,23.4,00.0,33.1,25.9,07.1,0000.0,0008.36,0003.56,0003.12
2022-01-11 06:15:00,,0832.8,4.99,0.00,24.1,23.4,00.0,33.1,25.9,07.1,0000.0,0008.18,0003.56,0003.11
2022-01-11 06:16:00,,0832.8,5.01,0.00,24.1,23.5,00.0,33.1,25.9,07.0,0000.0,0008.24,0003.65,0003.18
2022-01-11 06:17:00,,0832.7,5.01,0.00,24.1,23.5,00.0,33.1,26.0,07.0,0000.0,0008.83,0003.76,0003.28
2022-01-11 06:18:00,,0832.7,4.99,0.00,24.1,23.5,00.0,33.1,26.0,07.0,0000.0,0009.12,0003.87,0003.36
2022-01-11 06:19:00,,0832.7,5.00,0.00,24.1,23.5,00.0,33.1,26.0,06.9,0000.0,0009.16,0003.91,0003.39
2022-01-11 06:20:00,,0832.7,5.00,0.00,24.1,23.5,00.0,33.1,26.0,06.8,0000.0,0009.45,0003.95,0003.42
2022-01-11 06:21:00,,0832.7,5.00,0.00,24.1,23.4,00.0,33.1,25.9,06.8,0000.0,0009.98,0003.96,0003.42
2022-01-11 06:22:00,,0832.7,5.01,0.00,24.1,23.4,00.0,33.1,25.9,06.9,0000.0,0009.37,0004.00,0003.43
2022-01-11 06:23:00,,0832.6,4.99,0.00,24.1,23.3,00.0,33.1,25.8,07.0,0000.0,0009.38,0004.02,0003.44
2022-01-11 06:24:00,,0832.6,5.00,0.00,24.0,23.3,00.0,33.1,25.7,06.8,0000.0,0009.30,0004.00,0003.43
2022-01-11 06:25:00,,0832.6,4.99,0.00,24.1,23.4,00.0,33.1,25.8,06.5,0000.0,0008.82,0003.96,0003.37
2022-01-11 06:26:00,,0832.6,5.01,0.00,24.1,23.4,00.0,33.1,25.9,06.9,0000.0,0008.82,0003.94,0003.35
2022-01-11 06:27:00,,0832.7,5.01,0.00,24.1,23.4,00.0,33.1,25.8,07.0,0000.0,0009.07,0003.93,0003.34
2022-01-11 06:28:00,,0832.6,5.00,0.00,24.1,23.4,00.0,33.1,25.9,07.0,0000.0,0009.55,0003.91,0003.33
2022-01-11 06:29:00,,0832.6,4.99,0.00,24.1,23.4,00.0,33.1,25.9,06.9,0000.0,0009.40,0003.88,0003.31
2022-01-11 06:30:00,,0832.5,5.01,0.00,24.1,23.4,00.0,33.1,25.9,06.9,0000.0,0009.96,0003.87,0003.30
2022-01-11 06:31:00,,0832.5,4.99,0.00,24.1,23.4,00.0,33.1,25.9,06.7,0000.0,0010.44,0003.85,0003.28
2022-01-11 06:32:00,,0832.5,5.00,0.00,24.1,23.4,00.0,33.1,25.9,06.4,0000.0,0010.13,0003.75,0003.21
2022-01-11 06:33:00,,0832.5,5.00,0.00,24.1,23.4,00.0,33.1,25.9,06.4,0000.0,0010.05,0003.65,0003.12
2022-01-11 06:34:00,,0832.5,4.99,0.00,24.1,23.5,00.0,33.1,25.9,06.4,0000.0,0010.04,0003.56,0002.98
2022-01-11 06:35:00,,0832.5,5.00,0.00,24.1,23.5,00.0,33.1,26.0,06.5,0000.0,0009.98,0003.52,0002.88
2022-01-11 06:36:00,,0832.6,5.01,0.00,24.1,23.5,00.0,33.1,25.9,06.5,0000.0,0009.84,0003.52,0002.91
2022-01-11 06:37:00,,0832.6,4.99,0.00,24.1,23.5,00.0,33.1,26.0,06.4,0000.0,0009.45,0003.43,0002.80
2022-01-11 06:38:00,,0832.5,5.00,0.00,24.1,23.5,00.0,33.1,25.9,06.3,0000.0,0009.28,0003.31,0002.63
2022-01-11 06:39:00,,0832.5,5.01,0.00,24.1,23.5,00.0,33.1,25.9,06.2,0000.0,0007.93,0003.19,0002.46
2022-01-11 06:40:00,,0832.6,4.99,0.00,24.1,23.5,00.0,33.1,26.0,06.1,0000.0,0008.44,0003.03,0002.27
2022-01-11 06:41:00,,0832.5,5.01,0.00,24.1,23.5,00.0,33.1,26.0,06.1,0000.0,0008.08,0002.84,0002.09
2022-01-11 06:42:00,,0832.5,5.00,0.00,24.1,23.5,00.0,33.1,25.9,06.1,0000.0,0007.74,0002.65,0001.93
2022-01-11 06:43:00,,0832.5,4.99,0.00,24.1,23.5,00.0,33.1,25.9,06.1,0000.0,0007.29,0002.58,0001.87
2022-01-11 06:44:00,,0832.5,5.01,0.00,24.1,23.4,00.0,33.1,25.9,06.1,0000.0,0007.50,0002.53,0001.83
2022-01-11 06:45:00,,0832.5,5.00,0.00,24.1,23.4,00.0,33.1,25.9,06.1,0000.0,0007.47,0002.50,0001.80
2022-01-11 06:46:00,,0832.5,4.99,0.00,24.1,23.4,00.0,33.1,25.9,06.2,0000.0,0007.35,0002.37,0001.72
2022-01-11 06:47:00,,0832.4,4.99,0.00,24.1,23.4,00.0,33.1,25.9,06.2,0000.0,0007.93,0002.27,0001.63
2022-01-11 06:48:00,,0832.5,5.00,0.00,24.1,23.4,00.0,33.1,25.9,06.2,0000.0,0008.20,0002.20,0001.59
2022-01-11 06:49:00,,0832.4,5.01,0.00,24.1,23.5,00.0,33.1,26.0,06.3,0000.0,0008.19,0002.19,0001.60
2022-01-11 06:50:00,,0832.4,4.99,0.00,24.1,23.5,00.0,33.1,25.9,06.4,0000.0,0008.61,0002.23,0001.66
2022-01-11 06:51:00,,0832.3,5.00,0.00,24.1,23.5,00.0,33.1,25.9,06.1,0000.0,0008.20,0002.24,0001.68
2022-01-11 06:52:00,,0832.3,5.01,0.00,24.1,23.4,00.0,33.1,25.9,06.0,0000.0,0008.19,0002.17,0001.65
2022-01-11 06:53:00,,0832.3,4.99,0.00,24.1,23.3,00.0,33.1,25.9,06.0,0000.0,0007.68,0002.12,0001.62
2022-01-11 06:54:00,,0832.3,5.01,0.00,24.1,23.3,00.0,33.1,25.8,06.0,0000.0,0007.53,0002.10,0001.59
2022-01-11 06:55:00,,0832.3,5.00,0.00,24.0,23.3,00.0,33.1,25.8,06.0,0000.0,0006.90,0002.01,0001.54
2022-01-11 06:56:00,,0832.3,5.01,0.00,24.0,23.3,00.0,33.1,25.8,06.0,0000.0,0006.68,0001.91,0001.49
2022-01-11 06:57:00,,0832.2,5.01,0.00,24.0,23.3,00.0,33.1,25.8,06.3,0000.0,0006.63,0001.93,0001.50
2022-01-11 06:58:00,,0832.1,4.99,0.00,24.0,23.3,00.0,33.1,25.8,05.6,0000.0,0005.36,0001.90,0001.47
2022-01-11 06:59:00,,0832.3,5.00,0.00,24.0,23.3,00.0,33.1,25.8,05.2,0000.0,0004.81,0001.86,0001.39
